Wind_Speed
14 15 15 14 14 14 14 14 14 14 14 14 14 13 13 13 13 13 14 15 14 14 14 12 12 13 13 14 15 15 15 15 14 15 15 15 15 15 15 15 15 15 15
16 16 15 15 15 15 15 15 15 15 15 15 15 15 14 14 14 14 15 16 15 15 15 14 13 14 14 15 16 16 16 16 16 16 15 16 16 17 17 17 17 17 17
17 16 16 16 15 15 14 14 15 15 15 15 16 16 16 16 16 16 16 16 17 17 17 16 15 15 15 15 16 16 16 18 18 18 18 17 18 18 18 17 18 18 18
17 17 16 16 16 15 15 15 15 16 16 16 16 17 17 17 18 18 18 18 19 19 19 18 17 16 16 16 17 17 18 18 19 19 19 19 19 18 18 18 19 20 20
17 16 17 17 16 16 16 15 16 17 17 16 17 18 18 19 20 20 20 20 20 19 20 20 18 17 17 18 18 18 19 19 19 19 20 20 20 20 20 20 21 21 21
18 18 18 17 17 16 16 16 17 17 17 17 17 18 19 20 21 21 21 21 21 21 20 19 19 19 19 19 19 20 20 20 20 20 21 21 21 22 22 22 23 22 22
19 18 17 17 17 17 17 17 18 18 18 18 19 19 19 19 21 22 22 22 22 22 22 22 21 21 20 21 21 22 22 22 22 22 22 22 23 23 24 24 24 24 24
18 18 18 18 18 18 18 19 19 19 19 19 20 20 20 21 21 21 22 23 23 22 22 23 23 23 23 23 24 24 24 24 24 24 24 24 24 25 25 25 25 26 26
18 18 19 19 19 19 18 19 20 20 20 20 21 21 21 21 21 21 22 22 22 23 23 24 24 25 25 25 26 25 25 25 25 25 25 25 26 26 25 26 26 27 27
20 20 20 20 20 20 19 20 21 21 21 21 21 21 20 20 21 21 22 23 22 22 22 23 24 24 25 26 26 26 26 26 26 27 26 26 27 27 26 27 27 26 26
21 21 21 21 21 21 21 22 22 22 22 22 21 21 21 21 21 21 22 22 21 21 22 23 24 25 26 26 27 27 28 28 27 27 27 27 27 27 27 27 27 27 27
22 23 23 23 23 23 23 23 24 24 23 23 22 22 22 21 21 22 23 22 22 23 23 23 24 24 25 26 27 28 28 27 27 27 26 27 27 27 27 27 27 27 27
23 24 24 24 24 24 24 25 24 24 24 23 23 23 22 23 22 22 22 23 23 24 24 24 24 24 25 25 26 26 27 27 26 25 25 26 26 26 26 27 27 27 26
25 25 25 25 25 24 25 25 24 24 24 24 24 24 24 24 24 24 23 24 24 24 25 24 24 24 25 25 25 25 25 25 24 24 26 26 27 26 27 28 28 27 26
28 28 27 27 27 27 26 26 25 25 25 25 25 25 25 25 25 25 24 25 25 26 26 26 26 26 26 26 26 26 26 25 25 25 26 26 27 27 26 26 26 26 26
28 28 29 29 29 28 28 27 27 27 26 25 25 25 26 25 25 25 25 25 26 27 27 26 26 26 27 27 27 26 26 25 25 25 26 26 26 26 27 27 26 27 28
29 29 29 30 29 29 29 29 28 28 27 26 26 26 26 25 24 24 24 25 26 26 26 26 27 27 27 27 27 26 26 26 26 26 26 26 26 26 27 27 27 27 28
29 29 29 30 30 29 29 29 28 27 27 27 27 27 26 25 25 24 24 25 25 26 26 26 26 27 27 27 26 26 25 25 26 26 26 26 26 27 28 28 28 28 28
29 29 30 30 29 28 28 28 28 27 27 26 26 26 25 25 25 25 25 25 26 26 26 26 26 27 27 26 26 26 26 26 26 26 27 27 28 28 28 28 28 28 28
29 29 29 28 28 28 28 28 27 26 26 26 25 25 25 25 25 25 26 26 27 27 27 27 27 27 26 26 26 26 27 27 27 27 27 28 28 28 28 28 28 28 27
29 28 29 28 28 27 27 27 26 26 26 26 26 25 25 26 26 26 26 26 26 27 27 27 27 27 26 26 26 25 26 26 27 27 28 27 27 27 27 27 27 28 28
29 29 28 28 27 27 27 26 26 26 26 26 26 26 26 26 27 27 26 26 26 27 27 27 27 26 26 26 25 25 26 26 27 27 27 27 27 27 27 27 27 27 27
28 28 28 27 26 26 26 26 26 26 25 26 26 26 26 26 26 26 25 26 26 27 27 26 25 25 25 25 25 26 26 26 27 27 27 27 28 28 27 27 27 26 27
28 28 27 27 26 26 26 25 25 25 26 26 26 26 26 26 26 26 25 26 26 27 27 26 26 26 26 25 25 26 26 26 27 27 27 27 28 28 28 27 27 27 27
27 27 27 27 27 27 26 26 26 26 26 26 26 26 26 26 26 25 25 26 27 27 27 26 26 25 24 25 25 25 26 26 26 26 27 27 28 28 27 27 27 27 27
26 26 26 27 27 27 26 26 26 26 26 26 26 26 26 25 25 25 25 26 26 26 25 25 24 24 24 24 24 23 24 24 24 25 26 26 26 26 26 26 26 26 27
Wind_Direction
308 307 307 306 305 301 297 291 290 288 285 282 283 285 287 287 289 292 294 294 295 295 297 299 302 299 299 298 299 298 298 296 295 297 296 294 292 291 292 292 292 292 292
307 305 304 301 300 301 298 295 291 287 284 282 281 281 283 284 284 288 290 291 293 293 293 291 295 298 299 297 297 297 297 295 293 290 290 288 286 288 291 290 290 292 291
312 305 302 301 299 299 296 293 292 289 287 283 281 281 283 285 286 288 288 288 289 289 288 284 287 294 297 298 297 295 293 292 291 288 287 288 288 288 289 290 290 292 292
307 303 298 296 296 296 294 293 291 292 290 288 284 282 284 286 288 287 287 288 288 286 283 284 287 291 294 296 296 296 294 293 292 288 287 288 288 288 289 290 289 289 291
303 301 301 300 296 298 298 297 295 297 295 290 287 286 285 285 287 287 285 286 285 285 284 283 285 289 293 295 294 295 295 294 291 288 286 286 287 287 289 289 289 288 289
297 297 297 299 295 295 297 297 297 296 295 293 292 292 290 287 286 287 286 284 282 284 285 285 286 287 291 294 293 294 293 292 291 289 287 288 288 288 288 289 289 287 287
296 296 294 295 293 291 292 293 294 294 295 296 295 294 293 290 288 286 285 284 283 285 284 283 285 285 287 291 292 293 292 291 291 290 289 289 288 287 287 287 287 286 285
292 292 293 293 293 293 292 292 293 292 293 294 295 295 294 291 289 287 284 283 283 284 284 284 285 286 287 290 291 291 291 290 290 289 289 289 289 289 287 285 285 286 286
288 288 290 292 292 293 292 293 293 294 293 293 293 293 292 291 288 286 285 285 286 284 284 285 285 286 287 288 288 288 291 292 290 288 289 289 290 289 287 286 286 285 284
287 286 290 292 292 294 294 295 294 294 294 295 295 295 294 292 290 288 288 287 288 287 285 285 287 287 288 289 288 289 290 291 290 290 289 288 289 290 287 286 285 284 284
287 285 288 290 291 292 293 293 294 293 294 294 295 295 294 294 292 291 291 291 290 291 289 288 291 291 290 290 289 290 290 292 289 289 290 290 290 290 290 288 286 284 284
285 285 285 286 288 289 291 292 292 293 293 294 293 292 290 290 291 291 291 292 290 289 289 289 291 292 292 292 291 291 291 291 291 290 290 292 291 290 290 289 287 286 286
285 284 286 287 286 288 291 292 292 291 291 291 291 291 289 288 289 290 290 291 290 288 288 289 291 293 293 292 291 292 292 291 289 291 291 292 291 291 291 290 290 289 288
284 284 285 287 287 289 291 291 289 289 290 291 291 289 288 287 287 287 287 287 288 288 287 288 290 292 293 293 293 292 292 292 292 292 292 292 291 291 291 292 291 290 289
283 285 287 289 290 291 292 292 291 291 292 292 292 290 288 286 287 286 286 287 287 288 287 287 290 291 292 291 291 291 290 291 293 293 293 293 292 293 292 293 292 291 291
282 284 286 288 289 290 291 291 292 291 290 292 292 293 291 289 287 287 287 287 288 289 289 289 289 288 289 290 290 289 289 291 292 293 293 294 293 291 291 294 294 293 293
281 283 286 288 289 289 290 290 290 290 290 291 292 293 293 289 288 288 288 289 290 290 290 290 289 288 287 287 288 289 289 289 290 291 292 293 293 293 293 295 295 295 294
281 282 284 285 287 287 288 288 288 289 289 290 290 291 289 287 287 287 288 289 289 290 291 291 292 291 288 287 287 288 289 291 292 290 289 289 292 294 295 295 296 296 297
280 282 283 284 284 285 285 286 286 287 289 290 292 290 287 286 287 288 288 288 289 290 291 292 292 293 293 290 287 286 287 289 290 290 290 291 292 293 293 294 295 295 294
279 281 281 282 283 284 284 284 285 286 288 290 290 289 288 288 287 288 289 290 289 291 292 292 292 293 293 292 291 288 288 288 289 291 292 293 293 293 291 292 293 294 294
278 278 279 280 281 283 286 286 285 286 287 288 289 290 290 290 290 290 291 291 291 291 291 292 292 292 291 292 292 290 290 291 291 293 294 293 293 293 294 295 294 294 295
277 276 276 278 281 283 285 286 286 287 288 287 287 289 291 292 291 290 290 291 292 292 292 292 292 292 292 292 292 292 292 293 293 293 294 295 295 295 296 296 296 295 295
277 275 275 278 281 284 287 287 286 287 287 288 288 290 292 292 292 291 290 292 293 292 293 293 292 293 293 293 292 293 294 293 292 291 292 295 296 296 297 296 296 295 296
277 276 276 278 280 283 285 287 288 288 288 288 289 290 292 292 293 292 291 291 292 292 292 292 292 292 293 293 292 292 293 293 292 291 293 295 296 296 297 297 297 296 295
277 278 278 279 280 282 283 285 286 287 287 288 289 291 292 292 293 291 291 291 292 292 292 292 291 291 291 290 291 293 294 294 292 293 294 295 296 296 296 297 297 297 296
280 280 279 280 281 282 282 283 285 286 287 287 288 289 291 292 293 292 291 291 293 292 292 292 292 292 293 293 293 295 297 298 297 297 297 297 297 297 296 298 299 299 298
Height
5882 5881 5879 5877 5876 5874 5872 5871 5870 5869 5868 5866 5865 5864 5863 5862 5861 5859 5858 5856 5855 5853 5852 5850 5849 5847 5846 5844 5843 5841 5840 5838 5837 5836 5834 5833 5831 5830 5828 5826 5825 5823 5822
5878 5877 5875 5873 5871 5870 5868 5867 5866 5865 5863 5862 5861 5860 5859 5858 5857 5855 5854 5852 5851 5849 5848 5847 5845 5844 5842 5840 5838 5837 5836 5834 5833 5832 5830 5828 5827 5825 5824 5822 5821 5819 5817
5875 5873 5871 5869 5867 5866 5864 5863 5861 5859 5858 5857 5856 5855 5854 5853 5852 5851 5849 5848 5847 5845 5844 5842 5841 5839 5838 5836 5834 5833 5831 5830 5828 5827 5825 5824 5822 5821 5819 5817 5816 5814 5813
5871 5869 5867 5865 5863 5862 5860 5858 5857 5855 5854 5853 5851 5850 5849 5848 5847 5846 5844 5843 5842 5840 5838 5837 5836 5834 5833 5831 5830 5828 5826 5824 5823 5821 5820 5819 5817 5816 5814 5813 5811 5809 5807
5867 5865 5863 5861 5859 5857 5855 5854 5852 5851 5849 5848 5846 5845 5844 5843 5842 5840 5839 5837 5836 5834 5833 5832 5831 5829 5828 5826 5824 5823 5821 5819 5817 5816 5814 5813 5811 5810 5809 5807 5805 5803 5801
5862 5860 5858 5857 5854 5852 5851 5849 5848 5846 5845 5843 5841 5840 5839 5838 5836 5835 5833 5832 5830 5829 5828 5826 5825 5823 5822 5820 5818 5816 5815 5813 5811 5810 5808 5807 5805 5804 5802 5800 5799 5797 5795
5857 5855 5853 5851 5850 5848 5846 5845 5843 5842 5840 5838 5836 5835 5833 5832 5830 5829 5827 5825 5824 5823 5822 5821 5819 5818 5816 5814 5812 5810 5809 5807 5805 5804 5802 5800 5798 5797 5795 5793 5791 5789 5788
5852 5850 5848 5847 5845 5843 5841 5840 5838 5836 5834 5833 5831 5829 5827 5826 5824 5822 5821 5819 5818 5816 5815 5814 5812 5811 5810 5808 5806 5804 5802 5800 5799 5797 5795 5793 5791 5789 5787 5785 5784 5782 5780
5846 5845 5843 5841 5840 5837 5835 5834 5832 5830 5829 5827 5825 5823 5821 5819 5817 5815 5814 5812 5811 5810 5809 5807 5806 5804 5803 5801 5799 5797 5795 5793 5791 5789 5787 5785 5783 5781 5779 5778 5776 5774 5773
5840 5839 5837 5836 5834 5832 5830 5828 5826 5824 5822 5820 5818 5816 5814 5812 5811 5809 5807 5806 5805 5804 5802 5800 5799 5797 5796 5793 5791 5790 5788 5786 5784 5781 5779 5778 5775 5773 5771 5769 5768 5766 5764
5834 5832 5831 5830 5828 5826 5824 5822 5820 5818 5815 5813 5811 5809 5808 5806 5804 5803 5801 5799 5798 5797 5795 5793 5792 5789 5787 5786 5784 5782 5780 5778 5776 5774 5772 5770 5767 5765 5763 5761 5759 5757 5756
5827 5826 5824 5823 5822 5820 5818 5816 5814 5811 5809 5807 5805 5803 5801 5799 5798 5796 5794 5792 5791 5789 5788 5786 5784 5782 5780 5778 5775 5774 5772 5770 5768 5766 5765 5762 5760 5758 5755 5753 5751 5749 5747
5820 5819 5818 5816 5814 5812 5811 5809 5806 5804 5802 5800 5798 5796 5794 5793 5791 5789 5787 5785 5783 5782 5780 5779 5777 5775 5772 5770 5768 5766 5764 5762 5760 5759 5757 5755 5752 5750 5747 5745 5743 5741 5739
5813 5812 5810 5808 5806 5805 5803 5800 5798 5796 5794 5793 5791 5789 5787 5785 5783 5781 5780 5778 5776 5774 5773 5771 5769 5767 5765 5763 5761 5759 5757 5755 5753 5751 5749 5747 5745 5742 5740 5737 5735 5733 5731
5805 5804 5803 5801 5800 5797 5795 5793 5791 5789 5787 5785 5783 5781 5779 5778 5776 5774 5772 5770 5768 5767 5765 5764 5762 5760 5758 5756 5754 5752 5750 5748 5746 5743 5741 5739 5737 5734 5732 5730 5727 5725 5723
5797 5797 5795 5793 5792 5790 5788 5786 5784 5782 5780 5777 5775 5773 5771 5770 5768 5766 5764 5762 5760 5759 5757 5756 5754 5752 5750 5748 5747 5744 5742 5740 5738 5736 5734 5731 5729 5727 5724 5722 5719 5717 5715
5789 5788 5787 5785 5784 5782 5780 5778 5776 5775 5772 5770 5768 5765 5763 5762 5760 5758 5756 5754 5752 5751 5749 5747 5745 5744 5742 5740 5738 5736 5734 5732 5729 5727 5725 5723 5721 5719 5716 5714 5711 5709 5706
5781 5779 5778 5777 5775 5773 5772 5770 5768 5766 5764 5762 5760 5757 5755 5754 5752 5751 5749 5747 5745 5743 5741 5739 5737 5735 5733 5731 5729 5727 5725 5723 5721 5719 5717 5715 5713 5710 5708 5705 5703 5700 5697
5772 5771 5769 5768 5766 5764 5763 5761 5760 5758 5756 5754 5752 5749 5748 5746 5744 5742 5741 5739 5737 5735 5733 5731 5729 5727 5725 5723 5721 5719 5717 5715 5713 5711 5709 5706 5704 5702 5699 5696 5694 5691 5688
5763 5762 5760 5759 5757 5756 5754 5753 5751 5750 5748 5746 5744 5742 5740 5738 5736 5734 5733 5731 5729 5727 5725 5723 5721 5719 5717 5714 5712 5711 5709 5707 5705 5702 5700 5697 5695 5692 5690 5687 5685 5682 5680
5754 5753 5751 5750 5748 5747 5745 5744 5743 5741 5740 5738 5737 5735 5733 5731 5729 5727 5725 5723 5720 5718 5717 5715 5712 5710 5708 5706 5704 5702 5700 5698 5696 5693 5691 5688 5686 5683 5681 5678 5676 5673 5671
5744 5743 5742 5741 5739 5738 5737 5736 5734 5733 5731 5730 5728 5726 5725 5723 5720 5718 5716 5714 5712 5710 5708 5706 5704 5702 5700 5698 5695 5693 5691 5689 5687 5684 5682 5679 5677 5674 5672 5669 5667 5664 5662
5735 5734 5733 5732 5731 5730 5728 5727 5726 5724 5723 5721 5719 5718 5716 5714 5712 5710 5708 5706 5704 5702 5700 5697 5695 5693 5691 5689 5687 5685 5683 5680 5678 5676 5674 5671 5669 5666 5663 5661 5658 5656 5653
5726 5726 5725 5724 5723 5722 5720 5719 5718 5716 5715 5713 5711 5709 5708 5706 5704 5702 5700 5698 5696 5694 5691 5689 5687 5685 5683 5681 5679 5677 5674 5672 5669 5667 5665 5662 5660 5657 5655 5652 5649 5647 5644
5718 5717 5716 5715 5714 5713 5712 5711 5710 5708 5706 5705 5703 5702 5700 5698 5696 5694 5692 5690 5688 5686 5683 5681 5679 5676 5674 5672 5670 5668 5665 5663 5660 5658 5656 5653 5650 5648 5646 5643 5641 5638 5636
5709 5708 5707 5706 5705 5704 5703 5702 5701 5700 5698 5697 5696 5694 5692 5690 5689 5686 5684 5682 5680 5677 5675 5673 5670 5668 5666 5664 5662 5660 5657 5655 5652 5650 5647 5644 5642 5639 5637 5635 5632 5629 5627